Ketchikan, AK

7:25 AM AKST on November 15, 2018 (GMT -0900)
Ketchikan International

Weather History for PAKT - March, 2018

Change the Weather History Date:

Monday, March 19, 2018

  Actual Average Record
Temperature  
Mean Temperature 42 °F 38 °F  
Max Temperature 45 °F 44 °F 55 °F (1998)
Min Temperature 38 °F 32 °F 16 °F (2002)
Degree Days  
Heating Degree Days 23 27  
Month to date heating degree days 483 532  
Moisture  
Dew Point 38 °F    
Average Humidity 87    
Maximum Humidity 96    
Minimum Humidity 71    
Precipitation  
Precipitation 0.31 in 0.36 in 1.16 in (1972)
Month to date precipitation 4.05 6.72  
Year to date precipitation 24.48 32.65  
Sea Level Pressure  
Sea Level Pressure 30.16 in    
Wind  
Wind Speed 7 mph (ESE)    
Max Wind Speed 12 mph    
Max Gust Speed 15 mph    
Visibility 8 miles    
Events Rain    
T = Trace of Precipitation, MM = Missing Value Source: NWS Daily Summary

Daily Weather History Graph

Daily Weather History Graph

Search for Another Location

Airport or City:

Astronomy

Mar. 19, 2018 Rise Set
Actual Time 6:51 AM AKDT 6:59 PM AKDT
Civil Twilight 6:14 AM AKDT 7:35 PM AKDT
Nautical Twilight 5:31 AM AKDT 8:18 PM AKDT
Astronomical Twilight 4:45 AM AKDT 9:04 PM AKDT
Moon 8:08 AM AKDT (3/19) 9:49 PM AKDT (3/19)
Length of Visible Light 13h 20m
Length of Day
12h 07m
Waxing Crescent, 6% of the Moon is Illuminated
Mar 19
Waxing Crescent
Mar 24
First Quarter
Mar 31
Full
Apr 7
Last Quarter
Apr 15
New

Hourly Weather History & Observations

Time (AKDT) Temp. Windchill Dew Point Humidity Pressure Visibility Wind Dir Wind Speed Gust Speed Precip Events Conditions
12:53 AM 42.1 °F 37.1 °F 37.9 °F 85% 30.24 in 10.0 mi North 8.1 mph - 0.00 in   Overcast
1:53 AM 42.1 °F 37.7 °F 37.9 °F 85% 30.24 in 10.0 mi North 6.9 mph - N/A   Overcast
2:08 AM 42.1 °F 37.7 °F 37.9 °F 85% 30.24 in 10.0 mi NNW 6.9 mph - N/A   Overcast
2:53 AM 42.1 °F 37.7 °F 37.9 °F 85% 30.24 in 10.0 mi North 6.9 mph - N/A   Overcast
3:53 AM 42.1 °F 37.7 °F 37.0 °F 82% 30.24 in 10.0 mi NNW 6.9 mph - N/A   Overcast
4:11 AM 41.0 °F 35.8 °F 36.0 °F 82% 30.24 in 10.0 mi NNW 8.1 mph - N/A   Overcast
4:24 AM 41.0 °F 36.4 °F 36.0 °F 82% 30.24 in 10.0 mi NNW 6.9 mph - N/A   Overcast
4:53 AM 41.0 °F 37.1 °F 37.0 °F 86% 30.24 in 10.0 mi North 5.8 mph - N/A   Overcast
5:53 AM 39.9 °F 37.8 °F 37.0 °F 89% 30.23 in 10.0 mi NNW 3.5 mph - N/A   Overcast
6:53 AM 37.9 °F 35.5 °F 36.0 °F 93% 30.23 in 10.0 mi SW 3.5 mph - N/A   Overcast
7:53 AM 39.2 °F - 37.4 °F 93% 30.22 in 10.0 mi Calm Calm - N/A   Overcast
8:53 AM 41.0 °F - 37.9 °F 89% 30.23 in 10.0 mi Calm Calm - N/A   Overcast
9:53 AM 42.8 °F 38.6 °F 37.4 °F 81% 30.23 in 10.0 mi SE 6.9 mph - N/A   Overcast
10:53 AM 44.6 °F 40.7 °F 37.4 °F 76% 30.23 in 10.0 mi ESE 6.9 mph - N/A   Overcast
11:53 AM 45.0 °F 41.2 °F 37.0 °F 74% 30.22 in 10.0 mi East 6.9 mph - N/A   Overcast
12:53 PM 44.6 °F 39.7 °F 35.6 °F 71% 30.20 in 10.0 mi ESE 9.2 mph - N/A   Overcast
1:53 PM 44.6 °F 39.7 °F 37.4 °F 76% 30.19 in 10.0 mi SE 9.2 mph - N/A Rain Light Rain
2:53 PM 44.6 °F 39.2 °F 39.2 °F 81% 30.17 in 10.0 mi SE 10.4 mph - N/A Rain Light Rain
3:53 PM 44.6 °F 40.2 °F 41.0 °F 87% 30.16 in 6.0 mi SE 8.1 mph - N/A Rain Light Rain
4:53 PM 42.8 °F 37.0 °F 39.2 °F 87% 30.14 in 6.0 mi ESE 10.4 mph - N/A Rain Light Rain
5:53 PM 42.8 °F 37.5 °F 41.0 °F 93% 30.12 in 8.0 mi ESE 9.2 mph - N/A Rain Light Rain
6:53 PM 42.8 °F 37.5 °F 39.2 °F 87% 30.10 in 5.0 mi SE 9.2 mph - N/A Rain Light Rain
7:53 PM 42.8 °F 38.0 °F 39.2 °F 87% 30.09 in 6.0 mi SE 8.1 mph - N/A Rain Light Rain
8:53 PM 41.0 °F 35.2 °F 39.2 °F 93% 30.07 in 6.0 mi SE 9.2 mph - N/A Rain Light Rain
9:38 PM 41.0 °F 36.4 °F 39.0 °F 93% 30.05 in 2.0 mi SE 6.9 mph - 0.02 in Rain Light Rain
9:53 PM 41.0 °F 37.1 °F 39.9 °F 96% 30.06 in 2.0 mi SE 5.8 mph - 0.04 in Rain Light Rain
10:00 PM 41.0 °F 36.4 °F 39.9 °F 96% 30.05 in 2.5 mi SE 6.9 mph - 0.01 in Rain Light Rain
10:08 PM 41.0 °F 37.1 °F 39.9 °F 96% 30.05 in 3.0 mi SE 5.8 mph - 0.02 in Rain Light Rain
10:15 PM 41.0 °F 37.1 °F 39.0 °F 93% 30.05 in 5.0 mi SSE 5.8 mph - 0.02 in Rain Light Rain
10:45 PM 41.0 °F 36.4 °F 39.0 °F 93% 30.03 in 10.0 mi SSE 6.9 mph - 0.04 in Rain Light Rain
10:53 PM 41.0 °F 37.1 °F 39.9 °F 96% 30.04 in 8.0 mi SE 5.8 mph - 0.05 in Rain Light Rain